Location: Les Be�udims
(44.0874°N, 6.1103°E)
Time: 12:45:51
(UTC+00:00)

Daily predictions for brighter satellites

Satellite Brightness Start Highest point End
(mag) Time Altitude Azimuth Time Altitude Azimuth Time Altitude Azimuth
Cosmos 1980 4.5 16:59:33 10° NNW 17:05:09 60° WSW 17:10:42 10° S
Cosmos 2263 Rocket 4.0 17:05:51 10° ESE 17:06:30 10° E 17:07:09 10° E
Atlas Centaur 2 4.0 17:06:08 10° SSW 17:07:53 12° SSE 17:09:44 10° SE
YAOGAN 6 3.1 17:05:31 10° SE 17:08:55 37° ENE 17:12:18 10° N
H-2A R/B 3.2 17:05:48 10° S 17:09:39 70° W 17:13:33 10° NNW
Cosmos 2227 Rocket 2.4 17:07:08 10° SSW 17:12:47 82° WNW 17:18:29 10° NNE
ERBS 4.3 17:10:21 10° WNW 17:12:55 20° NNW 17:15:27 10° NNE
IRS-1C Rocket 4.3 17:07:55 10° SSE 17:13:10 80° WSW 17:18:28 10° NNW
NOAA 12 4.1 17:10:25 10° SSE 17:15:38 78° ENE 17:20:55 10° N
Cosmos 2341 Rocket 4.1 17:10:49 10° S 17:17:11 84° E 17:23:33 10° N
SMAP 3.6 17:13:39 10° S 17:18:15 65° WSW 17:22:54 10° NNW
Cosmos 1953 Rocket 3.6 17:23:51 10° S 17:28:19 73° E 17:32:48 10° NNE
Cosmos 1943 4.4 17:25:22 10° N 17:29:38 21° NE 17:33:46 10° E
Cosmos 1328 3.8 17:25:55 10° S 17:29:52 60° E 17:33:50 10° NNE
Cosmos 1339 Rocket 4.4 17:25:27 10° N 17:31:33 71° E 17:37:42 10° SSE
CZ-4 R/B 1.7 17:28:14 10° SE 17:32:07 44° ENE 17:36:06 10° N
Cosmos 1758 Rocket 4.2 17:28:08 10° SSW 17:32:23 59° W 17:36:40 10° N
Iridium 96 3.7 17:30:09 10° N 17:32:38 81° W 17:35:14 10° S
COSMO-SKYMED 1 2.7 17:28:42 10° NNE 17:32:59 56° E 17:37:15 10° S
Cosmos 1842 Rocket 4.3 17:29:37 10° NNE 17:33:36 31° ENE 17:37:35 10° SE
FengYun 1-2 T 4.2 17:29:43 10° SSE 17:35:20 74° ENE 17:41:00 10° N
ATLAS CENTAUR R/B 1.1 17:35:16 10° NNW 17:39:15 63° NE 17:42:56 10° SE
Cosmos 2218 Rocket 4.0 17:33:00 10° S 17:39:19 77° E 17:45:45 10° N
Cosmos 44 Rocket 3.9 17:36:15 10° S 17:40:35 35° ESE 17:43:54 15° ENE
CSL-04 Debris 4.4 17:36:07 10° SE 17:41:14 47° ENE 17:46:25 10° N
SL-8 R/B 4.0 17:42:45 10° W 17:47:31 58° NNW 17:50:52 19° ENE
Shenzhou-11 Module 1.9 17:45:15 10° W 17:47:55 64° S 17:49:17 25° ESE
Cosmos 1959 Rocket 4.4 17:42:02 10° S 17:48:11 87° E 17:54:19 10° N
Cosmos 2251 Rocket 3.6 17:45:49 10° NNW 17:51:10 88° WSW 17:56:30 10° SSE
Cosmos 1703 3.5 17:50:42 10° SSW 17:54:38 71° W 17:58:37 10° N
H-2A R/B 3.5 17:55:39 17° NE 17:55:39 17° NE 17:58:06 10° NNE
USA 116 3.4 17:53:20 18° NE 17:55:20 43° E 17:58:20 10° S
Envisat 4.2 17:55:08 10° S 17:59:59 45° W 18:04:52 10° NNW
CSL-04 Rocket 3.7 17:54:53 10° SSE 18:00:21 68° ENE 18:05:53 10° N
Cosmos 1356 Rocket 3.3 17:58:06 10° N 18:02:11 84° E 18:06:19 10° S
Cosmos 1455 3.7 18:00:12 10° NNW 18:03:46 39° W 18:07:16 10° SSW
Cosmos 2221 2.7 18:00:39 10° N 18:04:49 47° ENE 18:08:57 10° SSE
Cosmos 2366 rocket 4.3 18:00:01 10° SSW 18:06:14 73° W 18:12:32 10° N
USA 267 3.9 18:03:50 14° NE 18:09:17 47° NNW 18:15:28 10° W
Cosmos 1076 Rocket 4.2 18:06:41 10° SSE 18:10:30 32° E 18:10:41 32° E
Starlink T 4.4 18:09:23 10° NW 18:11:56 23° NNE 18:11:56 23° NNE
Starlink N 4.4 18:11:24 10° NW 18:13:52 24° N 18:13:52 24° N
Starlink Q 4.5 18:13:39 10° NW 18:16:03 24° N 18:16:03 24° N
Starlink P 4.5 18:15:45 10° NW 18:18:04 24° N 18:18:04 24° N
ISS -2.1 18:15:55 10° WNW 18:18:45 24° N 18:19:20 23° N
Starlink U 4.5 18:17:49 10° NW 18:20:05 24° N 18:20:05 24° N
Cosmos 1371 Rocket 4.3 18:15:52 10° S 18:20:41 41° ESE 18:22:04 34° ENE
CZ-2D R/B 3.1 18:16:54 10° SSE 18:20:43 90° W 18:24:36 10° NNW
CENTAUR R/B 4.0 18:17:06 10° SSE 18:19:01 16° SE 18:19:01 16° SE
Cosmos 407 Rocket 3.7 18:17:20 10° N 18:22:27 47° ENE 18:24:47 29° ESE
Cosmos 1190 Rocket 4.3 18:18:12 10° N 18:23:16 42° ENE 18:24:43 35° ESE
Cosmos 1869 4.5 18:19:56 10° N 18:22:06 27° NNE 18:22:06 27° NNE
Cosmos 1939 Rocket 2.9 18:21:14 10° S 18:25:09 80° WSW 18:29:11 10° NNW
Fregat R/B Cluster 11 4.4 18:23:35 10° SSW 18:26:34 64° ESE 18:35:33 10° NE
NOSS 3-2 (A) 3.7 18:21:35 10° S 18:26:51 41° ESE 18:28:18 35° E
SL-16 R/B 3.9 18:26:17 10° NW 18:31:21 34° WSW 18:36:22 10° SSW
YAOGAN 1 3.5 18:30:09 10° S 18:34:20 49° W 18:38:33 10° NNW
Cosmos 2227 4.1 18:30:00 10° SSW 18:35:43 78° ESE 18:39:03 26° NNE
SJ-11-01 4.3 18:39:26 56° E 18:39:37 56° ENE 18:44:15 10° N
Cosmos 2058 4.0 18:37:01 10° S 18:39:19 31° SSE 18:39:19 31° SSE
Ariane Rocket 2.8 18:38:12 10° SSE 18:43:15 73° ENE 18:48:20 10° N
USA 234 4.2 18:37:33 10° SSE 18:43:47 46° SW 18:50:03 10° WNW
ARGOS 4.1 18:46:23 30° NNE 18:46:23 30° NNE 18:49:31 10° N
Cosmos 1603 3.6 18:39:03 10° NNW 18:44:46 89° ENE 18:48:56 19° SSE
Cosmos 1624 Rocket 3.9 18:42:29 10° S 18:47:42 63° ESE 18:48:11 60° ENE
Cosmos 2263 Rocket 2.0 18:43:51 10° SSW 18:49:23 78° ESE 18:51:06 46° NE
CZ-2C R/B 4.2 18:57:36 31° NNE 18:57:36 31° NNE 19:00:50 10° N
Atlas Centaur 2 4.0 18:53:09 10° SW 18:55:47 15° S 18:56:42 14° S
ADEOS Rocket 3.4 18:50:33 10° NNE 18:57:26 87° WNW 19:04:57 10° SSW
Cosmos 614 Rocket 4.1 18:55:06 10° NNW 19:00:19 75° WSW 19:02:55 30° S
Cosmos 2056 Rocket 3.4 18:58:22 10° SSW 19:03:38 84° ESE 19:03:46 82° ENE
USA 238 DEB 3.5 19:00:34 10° SSW 19:07:14 85° ESE 19:08:59 54° NE
USA 238 3.5 19:00:41 10° SSW 19:07:21 85° SE 19:09:02 55° NE
CZ-4 R/B 4.4 19:04:44 10° SW 19:07:23 16° W 19:10:03 10° NW
Cosmos 1943 3.3 19:08:37 10° NNW 19:14:15 71° WSW 19:15:42 49° S
ATLAS CENTAUR R/B 4.3 19:16:11 10° W 19:17:31 12° WSW 19:18:50 10° SW
Timation 1 Rocket 4.5 19:12:14 10° SW 19:18:12 71° WNW 19:19:34 53° N
Cosmos 1140 Rocket 4.0 19:21:53 10° NNW 19:26:10 56° NW 19:26:10 56° NW
H-2A R/B 3.5 19:36:15 30° NNW 19:36:15 30° NNW 19:38:51 10° NNW
NOSS 3-3 (C) 4.5 19:32:58 10° NW 19:40:33 80° SW 19:41:35 69° S
USA 267 4.5 19:51:11 29° N 19:51:22 29° N 19:56:49 10° WNW
ATLAS 3B R/B 4.4 19:47:28 10° SSW 19:49:13 19° SSW 19:49:13 19° SSW
CENTAUR R/B 4.3 20:04:37 10° SW 20:06:17 20° SW 20:06:17 20° SW
